Regional Weather Roundup
Issued by NWS

Home | Current Version | Previous Version | Text Only | Print | Product List | Glossary On
Versions: 1 2 3 4 5 6 7 8 9 10 11 12 13 14 15 16 17 18 19 20 21 22 23 24 25 26 27 28 29 30 31 32 33 34 35 36 37 38 39 40 41 42 43 44 45 46 47 48 49 50
000
ASUS44 KOUN 261000
RWROK

WEATHER ROUNDUP FOR OKLAHOMA
NATIONAL WEATHER SERVICE NORMAN OK
500 AM CDT FRI AUG 26 2016

NOTE: "FAIR" INDICATES FEW OR NO CLOUDS BELOW 12,000 FEET WITH NO
      SIGNIFICANT WEATHER AND/OR OBSTRUCTIONS TO VISIBILITY.

OKZ001>007-009>012-014-015-017-261100-
NORTHWEST OKLAHOMA AND THE PANHANDLE

CITY           SKY/WX    TMP DP  RH WIND       PRES   REMARKS
GAGE           MOCLDY    66  64  93 W3        30.10F
GUYMON         FAIR      62  59  90 S6        30.13F
$$

OKZ016-021>023-033>039-044-045-261100-
SOUTHWEST OKLAHOMA

CITY           SKY/WX    TMP DP  RH WIND       PRES   REMARKS
LAWTON/REGL    MOCLDY    72  66  81 N10       30.06F
LAWTON/FT SILL FAIR      70  67  90 N10       30.05F
FREDERICK      FAIR      69  65  86 N9        30.03F
CLINTON        FAIR      67  63  87 E6        30.10F
HOBART         FAIR      67  65  93 E7        30.08F
ALTUS AFB      FAIR      67  63  88 NE7       30.06F
$$

OKZ018>020-024>031-261100-
CENTRAL OKLAHOMA

CITY           SKY/WX    TMP DP  RH WIND       PRES   REMARKS
OKLAHOMA CITY  MOCLDY    70  66  87 NE5       30.07F
OKC/WILEY POST FAIR      69  67  93 CALM      30.08F
OKC/TINKER AFB FAIR      70  65  86 N5        30.07S
STILLWATER     FAIR      68  66  93 SE5       30.06F
GUTHRIE        FAIR      67  66  97 CALM        N/A
$$

OKZ008-013-054>072-261100-
NORTHEAST OKLAHOMA

CITY           SKY/WX    TMP DP  RH WIND       PRES   REMARKS
TULSA          CLOUDY    74  71  91 CALM      30.03F
TULSA/JONES    FAIR      72  71  97 CALM      30.05S
PONCA CITY     FAIR      69  64  84 SE3       30.05F
BARTLESVILLE   FAIR      69  67  93 CALM      30.07F
MUSKOGEE       FAIR      71  67  87 CALM      30.06S
$$

OKZ032-040>043-046>053-073>077-261100-
SOUTH CENTRAL/SOUTHEAST OKLAHOMA

CITY           SKY/WX    TMP DP  RH WIND       PRES   REMARKS
MCALESTER      FAIR      73  69  87 CALM      30.05F
$$





USA.gov is the U.S. government's official web portal to all federal, state and local government web resources and services.